Regional Weather Roundup
Issued by NWS

Home | Current Version | Previous Version | Graphics & Text | Print | Product List | Glossary On
Versions: 1 2 3 4 5 6 7 8 9 10 11 12 13 14 15 16 17 18 19 20 21 22 23 24 25 26 27 28 29 30 31 32 33 34 35 36 37 38 39 40 41 42 43 44 45 46 47 48 49 50
000
ASUS43 KDTX 301001
RWRMI
MICHIGAN HOURLY REGIONAL WEATHER ROUNDUP
NATIONAL WEATHER SERVICE DETROIT/PONTIAC MI
600 AM EDT FRI SEP 30 2016

NOTE: "FAIR" INDICATES FEW OR NO CLOUDS BELOW 12,000 FEET WITH NO
SIGNIFICANT WEATHER AND/OR OBSTRUCTION TO VISIBILITY.

MIZ047>049-052>055-059>063-066>070-074>076-081>083-301100-
SOUTHEAST LOWER MICHIGAN

CITY           SKY/WX    TMP DP  RH WIND       PRES   REMARKS
ADRIAN         CLOUDY    61  61 100 E9        30.13S
ALMA           LGT RAIN  60  59  99 NE13G21   30.22R
ANN ARBOR      CLOUDY    61  60  97 NE8       30.14F
BAD AXE        CLOUDY    59  55  89 E6        30.27S
CARO           CLOUDY    59  56  89 E8        30.23S
DETROIT CITY   CLOUDY    60  60 100 NE12G21   30.15F
DETROIT        LGT RAIN  62  61  96 E7        30.15F
FLINT          LGT RAIN  59  57  93 E12       30.19F
GROSSE ILE     RAIN      62  60  93 MISG      30.13S
HILLSDALE      DRIZZLE   59  57  94 NE5       30.12F
HOWELL         DRIZZLE   59  58  97 NE7       30.17R

CITY           SKY/WX    TMP DP  RH WIND       PRES   REMARKS
JACKSON        LGT RAIN  59  59 100 NE9       30.14F
LAMBERTVILLE   CLOUDY    64  60  87 E6        30.12R
LANSING        LGT RAIN  58  56  93 NE10      30.19R
LAPEER         LGT RAIN  57  57 100 NE6       30.21F
MASON          LGT RAIN  58  57  96 NE3       30.17S
MONROE         CLOUDY    64  61  90 E16G26    30.12S
MT. CLEMENS    LGT RAIN  60  59  97 E16       30.16F
PONTIAC        CLOUDY    59  56  89 E14G20    30.16F
PORT HURON     RAIN      57  55  94 E8        30.22R
TRI CITIES     CLOUDY    59  58  96 NE14      30.25R FOG
MIDLAND        CLOUDY    58  58  97 NE10      30.24S FOG
TROY           CLOUDY    60  58  91 NE14      30.18F
SAGINAW HB     CLOUDY    59  55  88 NE9       30.23S FOG
$$
MIZ043>046-050>051-056>058-064>065-071>073-077>080-301100-
SOUTHWEST LOWER MICHIGAN

CITY           SKY/WX    TMP DP  RH WIND       PRES   REMARKS
BATTLE CREEK   LGT RAIN  59  59 100 NE9       30.16S FOG
BENTON HARBOR  CLOUDY    61  56  83 NE10      30.13F
BIG RAPIDS     LGT RAIN  58  57  97 NE5       30.23F
COLDWATER      CLOUDY    59  59  99 NE10      30.12F
FREMONT        LGT RAIN  58  57  98 NE8       30.22R
HOLLAND        CLOUDY    60  56  86 NE9G16    30.18R
GRAND RAPIDS   LGT RAIN  58  56  93 NE10      30.18F
IONIA          LGT RAIN  57  56  96 NE10      30.18S
KALAMAZOO      RAIN      60  57  89 NE7       30.16R FOG
LUDINGTON      CLOUDY    59  55  87 NE7       30.25R
MARSHALL       CLOUDY    59  58  98 NE3       30.14S FOG
MOUNT PLEASANT DRIZZLE   58  57  97 NE9       30.23R
MUSKEGON       CLOUDY    59  57  93 NE12      30.20S
SOUTH HAVEN    CLOUDY    61  59  93 NE10      30.15S
$$
MIZ016>042-301100-
NORTHERN LOWER MICHIGAN

CITY           SKY/WX    TMP DP  RH WIND       PRES   REMARKS
ALPENA         CLOUDY    61  53  75 NE9       30.34R
BEAVER ISLAND  PTCLDY    58  55  88 NE8       30.36S
BELLAIRE       CLOUDY    60  55  83 NE5       30.31S
CADILLAC       CLOUDY    56  55  94 NE12      30.27S
CHARLEVOIX     PTCLDY    60  55  84 NE10      30.35S
FRANKFORT      CLOUDY    61  55  78 E3        30.28S
GAYLORD        CLOUDY    58  53  84 NE10      30.32S
GRAYLING       CLOUDY    58  55  88 E8        30.31S
HARBOR SPRINGS PTCLDY    59  55  87 NE9       30.32F
HOUGHTON LAKE  CLOUDY    56  54  93 NE10      30.29S
MANISTEE       CLOUDY    60  56  86 NE13      30.27R
OSCODA         CLOUDY    60  54  79 E14       30.29R
PELLSTON       PTCLDY    59  53  80 NE7       30.34F
ROGERS CITY    CLOUDY    61  56  83 E8        30.36R
TRAVERSE CITY  CLOUDY    62  55  77 E6        30.29S
$$
MIZ007>008-015-301100-
EASTERN UPPER MICHIGAN

CITY           SKY/WX    TMP DP  RH WIND       PRES   REMARKS
KINROSS        CLEAR     52  49  89 NE9       30.39R
MACKINAC ISLAN CLOUDY    58  54  85 NE13      30.35F
NEWBERRY       CLEAR     48  47  97 CALM      30.39R
S. S. MARIE    CLEAR     55  49  80 E6        30.39S
MUNISING         N/A     47  46  97 S6        30.39R
$$
MIZ004>006-011>014-085-301100-
CENTRAL UPPER MICHIGAN

CITY           SKY/WX    TMP DP  RH WIND       PRES   REMARKS
MANISTIQUE     MOCLDY    52  50  92 NE6       30.37R
ESCANABA       CLOUDY    57  52  83 NE8       30.36S
MENOMINEE      MOCLDY    57  53  86 NE8       30.34S
SAWYER-GWINN   FOG       50  49  97 N6        30.40S VSB 1/2
$$
MIZ001>003-009>011-084-301100-
WESTERN UPPER MICHIGAN

CITY           SKY/WX    TMP DP  RH WIND       PRES   REMARKS
IRON MOUNTAIN  CLEAR     49  46  90 N7        30.37S
HOUGHTON       CLEAR     51  49  92 NE7       30.43S
COPPER HARBOR    N/A     56  55  97 CALM      30.43F
IRONWOOD       CLOUDY    50  50 100 NE3       30.45S
$$

ABBREVIATIONS USED IN REMARKS
   TC - TEMPERATURE IN CELSIUS
  WCI - WIND CHILL INDEX
   HX - HEAT INDEX
  VSB - VISIBILITY




USA.gov is the U.S. government's official web portal to all federal, state and local government web resources and services.